QPF
0.00 0.00 0.00 0.01 0.01 0.01 0.02 0.03 0.04 0.05 0.04 0.04 0.02 0.02 0.01 0.01 0.01 0.01 0.01 0.02 0.02 0.01 0.02 0.02 0.03 0.04 0.04 0.04 0.04 0.04 0.05 0.05 0.04 0.04 0.03 0.03 0.03 0.03
0.01 0.00 0.00 0.01 0.02 0.02 0.02 0.02 0.02 0.02 0.04 0.04 0.03 0.01 0.00 0.00 0.01 0.01 0.01 0.02 0.02 0.02 0.02 0.03 0.03 0.04 0.04 0.04 0.03 0.03 0.03 0.04 0.04 0.04 0.04 0.03 0.03 0.04
0.01 0.01 0.01 0.01 0.03 0.04 0.03 0.02 0.01 0.01 0.04 0.03 0.02 0.02 0.01 0.01 0.01 0.01 0.01 0.02 0.03 0.04 0.04 0.03 0.03 0.05 0.06 0.04 0.03 0.02 0.03 0.05 0.08 0.09 0.09 0.08 0.07 0.07
0.01 0.01 0.01 0.02 0.02 0.03 0.03 0.02 0.01 0.01 0.02 0.02 0.01 0.01 0.01 0.02 0.01 0.00 0.01 0.02 0.03 0.05 0.05 0.04 0.04 0.05 0.09 0.06 0.04 0.03 0.03 0.04 0.08 0.12 0.13 0.12 0.11 0.12
0.00 0.00 0.01 0.01 0.02 0.02 0.02 0.01 0.01 0.01 0.01 0.02 0.02 0.01 0.01 0.02 0.02 0.01 0.01 0.03 0.03 0.04 0.04 0.04 0.04 0.04 0.05 0.05 0.04 0.03 0.04 0.04 0.05 0.06 0.07 0.08 0.07 0.08
0.00 0.00 0.00 0.00 0.01 0.01 0.02 0.02 0.01 0.01 0.01 0.01 0.02 0.02 0.02 0.02 0.02 0.01 0.02 0.02 0.02 0.03 0.03 0.04 0.04 0.03 0.04 0.04 0.03 0.02 0.02 0.02 0.04 0.05 0.05 0.05 0.05 0.05
0.01 0.01 0.00 0.01 0.02 0.02 0.02 0.01 0.02 0.02 0.02 0.02 0.02 0.02 0.02 0.02 0.02 0.01 0.01 0.01 0.01 0.01 0.02 0.02 0.04 0.03 0.03 0.03 0.04 0.03 0.02 0.02 0.02 0.03 0.04 0.05 0.05 0.04
0.02 0.01 0.01 0.01 0.01 0.02 0.02 0.02 0.02 0.03 0.03 0.03 0.02 0.02 0.02 0.02 0.02 0.02 0.02 0.01 0.01 0.01 0.01 0.02 0.03 0.04 0.04 0.03 0.03 0.03 0.03 0.02 0.02 0.02 0.04 0.03 0.04 0.03
0.02 0.02 0.02 0.01 0.01 0.01 0.01 0.01 0.01 0.02 0.03 0.03 0.02 0.01 0.01 0.01 0.02 0.02 0.02 0.02 0.02 0.01 0.01 0.02 0.02 0.03 0.04 0.05 0.04 0.03 0.02 0.02 0.02 0.02 0.02 0.02 0.01 0.02
0.02 0.02 0.02 0.02 0.02 0.01 0.01 0.01 0.01 0.01 0.01 0.01 0.01 0.01 0.01 0.01 0.02 0.03 0.03 0.02 0.02 0.02 0.01 0.02 0.02 0.02 0.02 0.04 0.05 0.05 0.04 0.03 0.02 0.02 0.02 0.01 0.00 0.01
0.03 0.03 0.03 0.03 0.04 0.03 0.03 0.02 0.02 0.01 0.01 0.01 0.01 0.02 0.03 0.03 0.02 0.03 0.04 0.04 0.03 0.02 0.01 0.02 0.02 0.01 0.02 0.02 0.03 0.05 0.05 0.04 0.03 0.02 0.02 0.02 0.01 0.01
0.03 0.03 0.03 0.03 0.04 0.04 0.03 0.04 0.04 0.03 0.02 0.02 0.02 0.01 0.02 0.03 0.03 0.02 0.03 0.03 0.02 0.02 0.01 0.01 0.02 0.02 0.03 0.03 0.02 0.03 0.05 0.05 0.04 0.03 0.03 0.02 0.02 0.01
0.02 0.03 0.02 0.02 0.02 0.03 0.03 0.03 0.03 0.04 0.03 0.02 0.02 0.01 0.01 0.02 0.02 0.02 0.02 0.02 0.02 0.01 0.01 0.02 0.02 0.03 0.03 0.03 0.04 0.05 0.05 0.05 0.05 0.04 0.03 0.02 0.02 0.01
0.02 0.02 0.01 0.01 0.01 0.01 0.01 0.02 0.03 0.03 0.03 0.03 0.02 0.01 0.01 0.02 0.01 0.02 0.02 0.03 0.03 0.02 0.02 0.02 0.02 0.03 0.04 0.04 0.04 0.05 0.07 0.08 0.06 0.04 0.04 0.03 0.02 0.02
0.01 0.01 0.01 0.02 0.02 0.02 0.01 0.02 0.02 0.02 0.02 0.03 0.03 0.02 0.02 0.02 0.02 0.02 0.02 0.03 0.03 0.03 0.01 0.01 0.02 0.03 0.04 0.05 0.04 0.04 0.05 0.07 0.10 0.08 0.05 0.04 0.03 0.02
0.02 0.02 0.02 0.02 0.02 0.02 0.02 0.02 0.02 0.02 0.03 0.03 0.03 0.03 0.03 0.03 0.03 0.02 0.02 0.02 0.03 0.03 0.02 0.02 0.02 0.02 0.03 0.04 0.05 0.05 0.05 0.05 0.06 0.08 0.08 0.06 0.04 0.03
0.02 0.02 0.01 0.01 0.01 0.01 0.01 0.01 0.02 0.02 0.02 0.02 0.02 0.03 0.03 0.03 0.03 0.03 0.03 0.03 0.02 0.02 0.02 0.02 0.03 0.03 0.03 0.03 0.04 0.05 0.05 0.05 0.05 0.05 0.06 0.06 0.05 0.03
0.02 0.02 0.01 0.01 0.01 0.01 0.01 0.01 0.01 0.01 0.02 0.02 0.02 0.03 0.03 0.04 0.05 0.05 0.05 0.04 0.03 0.02 0.02 0.02 0.03 0.03 0.03 0.04 0.04 0.04 0.05 0.06 0.06 0.06 0.05 0.04 0.04 0.03
0.02 0.01 0.01 0.01 0.01 0.01 0.01 0.01 0.01 0.02 0.02 0.02 0.03 0.03 0.03 0.02 0.02 0.03 0.03 0.03 0.03 0.02 0.03 0.03 0.03 0.03 0.03 0.03 0.03 0.03 0.04 0.05 0.06 0.06 0.05 0.04 0.03 0.03
0.01 0.01 0.01 0.01 0.01 0.01 0.01 0.01 0.01 0.01 0.01 0.02 0.02 0.02 0.02 0.02 0.02 0.02 0.02 0.02 0.02 0.02 0.02 0.02 0.03 0.03 0.03 0.02 0.02 0.02 0.03 0.04 0.05 0.06 0.05 0.04 0.03 0.03
0.01 0.01 0.01 0.01 0.01 0.01 0.01 0.01 0.02 0.02 0.02 0.02 0.01 0.01 0.01 0.01 0.02 0.02 0.03 0.02 0.02 0.02 0.02 0.02 0.02 0.02 0.03 0.03 0.03 0.03 0.03 0.04 0.05 0.05 0.05 0.05 0.05 0.04
0.01 0.01 0.01 0.00 0.00 0.00 0.01 0.01 0.01 0.02 0.02 0.03 0.03 0.02 0.02 0.02 0.02 0.02 0.02 0.02 0.02 0.02 0.02 0.02 0.02 0.02 0.02 0.02 0.02 0.02 0.03 0.04 0.04 0.05 0.06 0.06 0.07 0.07
0.01 0.01 0.01 0.01 0.01 0.01 0.01 0.01 0.02 0.02 0.02 0.02 0.03 0.03 0.03 0.03 0.02 0.02 0.02 0.02 0.02 0.02 0.02 0.02 0.02 0.02 0.02 0.02 0.02 0.02 0.03 0.03 0.04 0.04 0.06 0.07 0.06 0.06
MSLP
1023.73 1023.95 1024.21 1024.52 1024.87 1025.28 1025.73 1026.23 1026.75 1027.28 1027.82 1028.34 1028.83 1029.25 1029.59 1029.85 1030.00 1030.05 1030.02 1029.93 1029.79 1029.65 1029.52 1029.42 1029.37 1029.35 1029.36 1029.38 1029.41 1029.43 1029.44 1029.44 1029.42 1029.41 1029.39 1029.35 1029.30 1029.20
1023.94 1024.09 1024.28 1024.50 1024.79 1025.13 1025.54 1026.02 1026.54 1027.11 1027.70 1028.29 1028.84 1029.34 1029.76 1030.09 1030.32 1030.44 1030.48 1030.46 1030.39 1030.32 1030.25 1030.21 1030.19 1030.19 1030.21 1030.22 1030.21 1030.19 1030.15 1030.09 1030.03 1029.97 1029.92 1029.88 1029.82 1029.75
1024.22 1024.33 1024.45 1024.61 1024.82 1025.11 1025.46 1025.90 1026.41 1026.99 1027.60 1028.22 1028.83 1029.40 1029.89 1030.29 1030.59 1030.79 1030.91 1030.96 1030.98 1030.98 1030.98 1030.99 1031.02 1031.04 1031.07 1031.07 1031.04 1030.98 1030.88 1030.78 1030.66 1030.56 1030.48 1030.41 1030.35 1030.29
1024.54 1024.64 1024.73 1024.85 1025.00 1025.23 1025.53 1025.92 1026.40 1026.95 1027.56 1028.20 1028.83 1029.43 1029.97 1030.43 1030.80 1031.07 1031.27 1031.41 1031.50 1031.57 1031.64 1031.71 1031.78 1031.84 1031.88 1031.88 1031.84 1031.75 1031.63 1031.49 1031.34 1031.20 1031.08 1030.99 1030.92 1030.86
1024.86 1024.98 1025.08 1025.18 1025.31 1025.50 1025.75 1026.09 1026.52 1027.03 1027.61 1028.22 1028.85 1029.46 1030.02 1030.51 1030.92 1031.26 1031.52 1031.73 1031.90 1032.04 1032.18 1032.30 1032.42 1032.52 1032.58 1032.60 1032.56 1032.48 1032.35 1032.19 1032.02 1031.87 1031.73 1031.62 1031.54 1031.47
1025.14 1025.32 1025.46 1025.58 1025.71 1025.88 1026.10 1026.40 1026.77 1027.22 1027.74 1028.30 1028.88 1029.46 1030.01 1030.51 1030.95 1031.32 1031.64 1031.90 1032.13 1032.33 1032.52 1032.70 1032.86 1033.00 1033.09 1033.14 1033.14 1033.08 1032.97 1032.83 1032.67 1032.52 1032.39 1032.28 1032.19 1032.11
1025.33 1025.59 1025.80 1025.98 1026.14 1026.32 1026.53 1026.78 1027.10 1027.49 1027.93 1028.42 1028.93 1029.46 1029.97 1030.45 1030.88 1031.26 1031.60 1031.90 1032.17 1032.42 1032.65 1032.87 1033.07 1033.24 1033.38 1033.47 1033.51 1033.49 1033.43 1033.34 1033.22 1033.10 1032.99 1032.89 1032.80 1032.72
1025.41 1025.76 1026.06 1026.31 1026.53 1026.74 1026.96 1027.20 1027.47 1027.79 1028.16 1028.56 1028.99 1029.44 1029.89 1030.32 1030.72 1031.10 1031.44 1031.75 1032.04 1032.31 1032.57 1032.81 1033.04 1033.25 1033.42 1033.55 1033.64 1033.68 1033.69 1033.65 1033.60 1033.53 1033.46 1033.39 1033.32 1033.25
1025.37 1025.80 1026.19 1026.52 1026.82 1027.09 1027.33 1027.57 1027.82 1028.09 1028.39 1028.71 1029.06 1029.42 1029.80 1030.17 1030.53 1030.87 1031.20 1031.50 1031.79 1032.07 1032.33 1032.59 1032.83 1033.05 1033.25 1033.42 1033.55 1033.65 1033.72 1033.75 1033.76 1033.76 1033.74 1033.72 1033.68 1033.62
1025.20 1025.70 1026.17 1026.59 1026.97 1027.30 1027.60 1027.86 1028.11 1028.35 1028.60 1028.86 1029.13 1029.42 1029.73 1030.03 1030.34 1030.65 1030.94 1031.23 1031.50 1031.77 1032.02 1032.27 1032.51 1032.73 1032.94 1033.13 1033.29 1033.43 1033.54 1033.63 1033.70 1033.76 1033.79 1033.82 1033.82 1033.80
1024.93 1025.48 1026.01 1026.50 1026.96 1027.37 1027.72 1028.03 1028.30 1028.54 1028.77 1028.99 1029.22 1029.45 1029.70 1029.96 1030.22 1030.48 1030.75 1031.00 1031.26 1031.50 1031.73 1031.96 1032.17 1032.38 1032.58 1032.76 1032.93 1033.09 1033.22 1033.35 1033.46 1033.55 1033.63 1033.70 1033.74 1033.76
1024.61 1025.18 1025.75 1026.31 1026.83 1027.31 1027.72 1028.09 1028.40 1028.66 1028.89 1029.10 1029.31 1029.51 1029.72 1029.95 1030.18 1030.41 1030.65 1030.88 1031.10 1031.32 1031.52 1031.72 1031.90 1032.08 1032.25 1032.41 1032.57 1032.71 1032.84 1032.97 1033.09 1033.20 1033.30 1033.39 1033.46 1033.51
1024.27 1024.85 1025.44 1026.04 1026.62 1027.15 1027.63 1028.04 1028.40 1028.70 1028.95 1029.18 1029.38 1029.58 1029.78 1029.99 1030.20 1030.42 1030.64 1030.85 1031.05 1031.24 1031.42 1031.58 1031.73 1031.88 1032.01 1032.13 1032.25 1032.36 1032.47 1032.57 1032.67 1032.77 1032.87 1032.96 1033.04 1033.11
1023.95 1024.53 1025.14 1025.76 1026.37 1026.94 1027.46 1027.92 1028.32 1028.65 1028.94 1029.19 1029.42 1029.63 1029.84 1030.05 1030.26 1030.48 1030.68 1030.89 1031.07 1031.24 1031.40 1031.53 1031.65 1031.76 1031.85 1031.93 1032.01 1032.08 1032.14 1032.20 1032.26 1032.33 1032.39 1032.46 1032.53 1032.59
1023.65 1024.24 1024.85 1025.48 1026.10 1026.69 1027.23 1027.72 1028.14 1028.51 1028.83 1029.11 1029.36 1029.60 1029.83 1030.06 1030.28 1030.50 1030.71 1030.91 1031.09 1031.25 1031.39 1031.51 1031.60 1031.68 1031.74 1031.79 1031.82 1031.85 1031.87 1031.88 1031.89 1031.90 1031.92 1031.94 1031.97 1032.02
1023.35 1023.95 1024.56 1025.19 1025.80 1026.39 1026.93 1027.42 1027.86 1028.24 1028.58 1028.89 1029.17 1029.44 1029.69 1029.94 1030.19 1030.42 1030.64 1030.84 1031.03 1031.18 1031.31 1031.42 1031.50 1031.56 1031.60 1031.63 1031.63 1031.63 1031.61 1031.58 1031.55 1031.51 1031.47 1031.44 1031.42 1031.42
1022.98 1023.60 1024.21 1024.83 1025.42 1025.99 1026.51 1026.99 1027.42 1027.81 1028.16 1028.48 1028.79 1029.08 1029.36 1029.64 1029.91 1030.16 1030.39 1030.61 1030.79 1030.95 1031.08 1031.18 1031.26 1031.32 1031.35 1031.37 1031.37 1031.36 1031.32 1031.27 1031.20 1031.13 1031.05 1030.97 1030.90 1030.85
1022.44 1023.08 1023.70 1024.30 1024.87 1025.41 1025.90 1026.35 1026.77 1027.15 1027.51 1027.85 1028.17 1028.49 1028.81 1029.11 1029.40 1029.68 1029.93 1030.15 1030.34 1030.50 1030.63 1030.74 1030.82 1030.89 1030.93 1030.96 1030.98 1030.97 1030.95 1030.90 1030.83 1030.74 1030.63 1030.52 1030.41 1030.32
1021.65 1022.31 1022.94 1023.53 1024.08 1024.58 1025.04 1025.47 1025.87 1026.25 1026.61 1026.97 1027.32 1027.67 1028.02 1028.35 1028.68 1028.98 1029.24 1029.48 1029.68 1029.85 1029.98 1030.09 1030.18 1030.26 1030.33 1030.38 1030.42 1030.44 1030.45 1030.42 1030.37 1030.29 1030.19 1030.07 1029.94 1029.81
1020.57 1021.24 1021.87 1022.44 1022.98 1023.46 1023.90 1024.32 1024.71 1025.09 1025.47 1025.85 1026.24 1026.63 1027.02 1027.40 1027.76 1028.09 1028.38 1028.63 1028.85 1029.02 1029.16 1029.27 1029.37 1029.46 1029.55 1029.63 1029.70 1029.77 1029.81 1029.83 1029.82 1029.77 1029.69 1029.58 1029.45 1029.32
1019.21 1019.88 1020.50 1021.06 1021.58 1022.06 1022.50 1022.91 1023.32 1023.72 1024.13 1024.55 1024.99 1025.43 1025.87 1026.30 1026.70 1027.07 1027.40 1027.67 1027.90 1028.08 1028.23 1028.35 1028.46 1028.56 1028.66 1028.77 1028.87 1028.97 1029.06 1029.13 1029.16 1029.16 1029.11 1029.03 1028.92 1028.79
1017.68 1018.32 1018.92 1019.47 1019.98 1020.46 1020.90 1021.34 1021.77 1022.20 1022.66 1023.13 1023.62 1024.12 1024.62 1025.11 1025.57 1025.98 1026.35 1026.66 1026.91 1027.11 1027.27 1027.40 1027.51 1027.62 1027.73 1027.85 1027.98 1028.11 1028.23 1028.33 1028.41 1028.44 1028.44 1028.39 1028.31 1028.20
1016.14 1016.73 1017.29 1017.83 1018.33 1018.81 1019.27 1019.72 1020.18 1020.66 1021.16 1021.68 1022.23 1022.79 1023.35 1023.90 1024.41 1024.88 1025.29 1025.64 1025.93 1026.15 1026.33 1026.47 1026.59 1026.71 1026.82 1026.95 1027.08 1027.22 1027.35 1027.48 1027.58 1027.64 1027.67 1027.65 1027.59 1027.50
Thickness
5656 5655 5654 5653 5653 5653 5652 5650 5644 5639 5639 5643 5644 5647 5647 5647 5645 5644 5644 5645 5646 5646 5646 5645 5645 5646 5647 5649 5651 5654 5655 5656 5657 5658 5659 5659 5660 5660
5652 5651 5650 5649 5648 5648 5647 5647 5645 5641 5636 5639 5640 5642 5643 5642 5641 5640 5640 5640 5640 5640 5640 5640 5640 5640 5641 5643 5645 5647 5649 5650 5651 5652 5653 5654 5654 5654
5647 5646 5645 5645 5643 5643 5643 5642 5641 5639 5634 5634 5637 5638 5638 5636 5635 5635 5635 5635 5634 5635 5634 5634 5634 5635 5636 5637 5638 5640 5642 5643 5644 5646 5646 5647 5648 5649
5643 5642 5641 5641 5639 5638 5638 5637 5636 5636 5632 5629 5630 5631 5631 5631 5630 5629 5629 5629 5629 5629 5629 5629 5629 5630 5630 5631 5632 5633 5634 5636 5637 5638 5639 5640 5641 5642
5639 5637 5636 5636 5634 5633 5632 5631 5631 5632 5630 5627 5625 5626 5625 5626 5624 5623 5623 5623 5624 5623 5623 5623 5623 5623 5624 5625 5625 5626 5627 5628 5629 5630 5632 5633 5633 5634
5635 5634 5632 5631 5629 5629 5628 5626 5626 5625 5623 5621 5619 5619 5619 5619 5618 5616 5615 5616 5616 5617 5617 5617 5617 5617 5618 5618 5619 5619 5619 5621 5622 5623 5624 5625 5625 5626
5630 5629 5628 5627 5627 5625 5624 5622 5621 5619 5616 5615 5613 5612 5612 5611 5610 5610 5609 5609 5609 5610 5610 5610 5610 5611 5610 5611 5611 5611 5612 5613 5614 5615 5616 5617 5617 5618
5624 5623 5622 5621 5621 5620 5619 5618 5617 5614 5611 5609 5608 5606 5607 5606 5606 5606 5603 5602 5600 5603 5603 5602 5603 5603 5603 5604 5604 5605 5605 5606 5607 5608 5608 5608 5609 5610
5618 5617 5617 5616 5615 5613 5612 5611 5610 5610 5609 5606 5603 5603 5602 5603 5601 5600 5598 5596 5595 5597 5596 5595 5595 5595 5596 5597 5597 5598 5599 5599 5600 5600 5600 5601 5602 5603
5613 5612 5610 5609 5609 5607 5606 5604 5603 5603 5603 5602 5601 5600 5600 5599 5597 5596 5594 5593 5592 5592 5592 5588 5588 5588 5590 5590 5591 5591 5591 5591 5592 5592 5593 5594 5595 5595
5607 5606 5605 5603 5603 5601 5600 5598 5597 5596 5597 5596 5596 5595 5595 5594 5593 5590 5587 5585 5583 5584 5585 5583 5582 5582 5583 5583 5583 5583 5583 5583 5583 5584 5584 5585 5586 5587
5599 5599 5598 5597 5596 5595 5593 5591 5589 5589 5589 5589 5588 5588 5587 5587 5586 5585 5582 5579 5578 5577 5579 5577 5576 5575 5573 5575 5575 5575 5574 5574 5574 5575 5575 5576 5577 5578
5592 5591 5590 5590 5589 5588 5586 5585 5584 5583 5582 5582 5581 5581 5580 5580 5579 5579 5578 5576 5574 5573 5574 5572 5569 5568 5566 5566 5566 5566 5566 5565 5565 5565 5566 5567 5568 5568
5585 5584 5583 5583 5582 5580 5579 5578 5578 5577 5575 5574 5574 5573 5573 5573 5573 5572 5572 5571 5570 5569 5569 5567 5564 5562 5559 5557 5557 5558 5557 5557 5557 5557 5557 5558 5559 5559
5578 5577 5576 5575 5574 5572 5571 5571 5570 5568 5568 5567 5567 5566 5567 5566 5566 5565 5565 5564 5564 5562 5562 5560 5558 5556 5553 5551 5549 5549 5548 5549 5549 5549 5549 5549 5549 5550
5569 5568 5568 5567 5565 5564 5564 5562 5562 5561 5560 5560 5560 5560 5560 5559 5558 5558 5557 5556 5554 5553 5553 5553 5551 5549 5545 5544 5542 5541 5540 5540 5540 5540 5540 5540 5540 5540
5561 5560 5559 5558 5557 5556 5555 5555 5554 5554 5553 5553 5553 5552 5552 5552 5551 5551 5549 5548 5546 5544 5543 5543 5543 5541 5539 5537 5534 5533 5533 5532 5533 5532 5531 5531 5531 5531
5554 5553 5552 5551 5551 5550 5549 5548 5547 5547 5547 5546 5545 5545 5545 5545 5544 5544 5542 5540 5539 5537 5536 5534 5533 5530 5528 5527 5527 5525 5524 5524 5524 5523 5522 5521 5522 5522
5547 5547 5546 5545 5545 5544 5543 5542 5541 5541 5541 5540 5539 5538 5538 5538 5537 5536 5535 5533 5532 5530 5529 5527 5525 5522 5519 5518 5519 5518 5517 5516 5515 5514 5514 5513 5514 5515
5540 5540 5540 5539 5538 5537 5537 5536 5535 5535 5534 5533 5532 5532 5531 5530 5530 5529 5528 5526 5524 5522 5520 5518 5517 5515 5513 5512 5511 5511 5510 5508 5507 5506 5506 5506 5506 5506
5534 5533 5533 5532 5531 5530 5530 5529 5528 5528 5527 5526 5525 5524 5524 5523 5522 5521 5519 5518 5516 5513 5511 5510 5510 5509 5507 5504 5502 5502 5501 5500 5500 5499 5498 5495 5495 5495
5527 5526 5525 5525 5524 5523 5522 5521 5520 5520 5519 5518 5517 5516 5515 5514 5513 5512 5510 5509 5507 5505 5504 5503 5502 5499 5497 5495 5495 5494 5493 5492 5491 5490 5489 5489 5486 5486
5520 5519 5518 5517 5516 5515 5514 5513 5513 5511 5510 5509 5508 5507 5506 5505 5504 5503 5502 5500 5498 5497 5494 5492 5491 5489 5488 5486 5485 5485 5484 5483 5482 5481 5481 5480 5479 5479